#timestamp,LO_Frequency,Hit,StdDev 
1510070415.7,286046994.0,P
1510070435.6,286046995.3,P
1510070455.4,286046997.1,P
1510070475.3,286046998.0,N
1510070495.1,286047000.4,N
1510070515.8,286046995.6,N
1510070535.7,286046995.8,N
1510070555.5,286046997.2,N
1510070575.4,286046999.0,N
1510070595.2,286046997.2,N
1510070615.0,286047002.2,N
1510070616.0,286047002.2,N
1510070635.8,286047010.4,Y
1510070655.6,286047008.4,P
1510070675.5,286047009.6,N
1510070695.3,286047016.4,P
1510070715.2,286047019.5,N
1510070735.9,286047016.3,N
1510070755.7,286047015.0,N
1510070775.6,286047015.4,N
1510070795.4,286047012.3,N
1510070815.3,286047010.1,N
1510070835.1,286047008.5,N
1510070855.8,286047004.5,N
1510070875.7,286047003.5,N
1510070895.5,286047004.1,N
1510070915.4,286047000.7,N
1510070935.2,286046999.2,N
1510070955.0,286046994.9,N
1510070955.9,286046994.9,N
1510070975.8,286046999.1,N
1510070995.6,286047000.7,N
1510071015.5,286047003.4,N
1510071035.3,286047003.8,N
1510071055.1,286047005.6,N
1510071075.9,286047003.3,N
1510071095.7,286047004.1,N
1510071115.6,286047004.0,N
1510071135.4,286047002.5,N
1510071155.2,286046995.1,N
1510071175.1,286046995.9,N
1510071176.0,286046995.9,N
1510071195.8,286046998.5,N
1510071215.7,286046999.3,N
1510071235.5,286047000.6,N
1510071255.3,286046998.7,N
1510071275.2,286047000.6,N
1510071295.0,286047001.8,N
1510071295.9,286047001.8,N
1510071315.8,286046998.1,N
1510071335.6,286046995.3,N
1510071355.4,286046994.5,N
1510071375.3,286046990.6,N
1510071395.1,286046989.7,N
1510071415.9,286046992.1,N
1510071435.7,286046995.9,N
1510071455.5,286046990.8,N
1510071475.4,286046987.7,N
1510071495.2,286046991.1,N
1510071515.1,286046994.3,N
1510071516.0,286046994.3,N
1510071535.8,286046994.4,N
1510071555.6,286046997.9,N
1510071575.5,286047003.2,N
1510071595.3,286046999.7,N
1510071615.2,286047002.7,N
1510071635.9,286046998.3,N
1510071655.7,286046996.6,N
1510071675.6,286046997.0,N
1510071695.4,286046995.2,N
1510071715.3,286046994.5,N
1510071735.1,286046989.4,N
1510071755.8,286046989.9,N
1510071775.7,286046988.0,N
1510071795.5,286046989.2,N
1510071815.4,286046991.0,N
1510071835.2,286046995.8,N
1510071855.0,286047000.0,N
1510071855.9,286047000.0,N
1510071875.8,286047010.6,N
1510071895.6,286047014.7,N
1510071915.5,286047015.8,N
1510071935.3,286047014.0,N
1510071955.1,286047006.4,N
1510071975.9,286047005.0,N
1510071995.7,286047008.2,N
1510072015.6,286047015.0,N
1510072035.4,286047018.0,N
1510072055.2,286047018.0,N
1510072075.1,286047015.3,N
1510072076.0,286047015.3,N
1510072095.8,286047017.9,N
1510072115.7,286047018.3,N
1510072135.5,286047017.1,N
1510072155.4,286047011.0,N
1510072175.2,286047010.6,N
1510072195.0,286047007.7,N
1510072195.9,286047007.7,N
1510072215.8,286047008.6,N
1510072235.6,286047012.4,N
1510072255.5,286047012.9,N
1510072275.3,286047014.6,N
1510072295.1,286047013.3,N
1510072315.9,286047012.2,N
1510072335.7,286047012.8,N
1510072355.6,286047019.7,N
1510072375.4,286047019.5,Y
1510072395.2,286047010.8,P
1510072415.1,286047005.4,P
1510072416.0,286047005.4,N
1510072435.8,286046997.1,N
1510072455.7,286046996.3,N
1510072475.5,286046992.1,N
1510072495.3,286046997.5,N
1510072515.2,286046996.7,N
1510072535.0,286046996.3,N
1510072535.9,286046996.3,N
1510072555.8,286046997.6,N
1510072575.6,286046997.0,N
1510072595.4,286046998.0,N
1510072615.3,286047001.1,N
1510072635.1,286047002.0,N
1510072655.9,286047001.5,N
1510072675.7,286047011.1,N
1510072695.5,286047018.8,Y
1510072715.4,286047010.9,P
1510072735.2,286047012.3,N
1510072755.1,286047010.7,N
1510072756.0,286047010.7,N
1510072775.8,286047007.0,N
1510072795.6,286047001.3,N
1510072815.5,286047007.3,N
1510072835.3,286047013.7,Y
1510072855.2,286047009.1,P
1510072875.0,286047010.1,P
1510072875.9,286047010.1,P
1510072895.8,286047006.4,Y
1510072915.6,286046995.3,P
1510072935.5,286046996.1,N
1510072955.3,286046997.2,N
1510072975.1,286046997.7,N
1510072995.9,286046996.6,N
1510073015.7,286047001.4,N
1510073035.6,286047001.5,N
1510073055.4,286047000.7,N
1510073075.2,286047001.0,N
1510073095.1,286046999.1,N
1510073096.0,286046999.1,N
1510073115.8,286046997.4,N
1510073135.7,286046999.2,N
1510073155.5,286046997.8,N
1510073175.3,286046996.6,N
1510073195.2,286047006.4,N
1510073215.0,286047010.7,N
1510073215.9,286047010.7,N
1510073235.8,286047007.4,N
1510073255.6,286046998.5,N
1510073275.4,286046998.1,N
1510073295.3,286046997.4,N
1510073315.1,286046999.6,N
1510073335.9,286047005.4,N
1510073355.7,286047010.2,N
1510073375.5,286047006.7,N
1510073395.4,286047005.3,N
1510073415.2,286047005.2,N
1510073435.1,286047000.2,N
1510073436.0,286047000.2,N
1510073455.8,286047000.8,N
1510073475.6,286046993.8,N
1510073495.5,286046994.0,N
1510073515.3,286046994.0,N
1510073535.2,286046992.3,N
1510073555.0,286046987.6,N
1510073555.9,286046987.6,N
1510073575.8,286046985.7,N
1510073595.6,286046990.5,N
1510073615.4,286046990.8,N
1510073635.3,286046994.0,N
1510073655.1,286046998.6,N
1510073675.9,286046998.6,N
1510073695.7,286046998.8,N
1510073715.5,286046999.2,N
1510073735.4,286047001.0,N
1510073755.2,286046995.0,N
1510073775.1,286046992.7,N
1510073776.0,286046992.7,N
1510073795.8,286046987.5,N
1510073815.6,286046982.3,N
1510073835.5,286046981.7,N
1510073855.3,286046984.0,N
1510073875.2,286046987.4,N
1510073895.9,286046982.5,N
1510073915.7,286046988.3,N
1510073935.6,286046992.5,N
1510073955.4,286046988.8,N
1510073975.3,286046988.4,N
1510073995.1,286046985.6,N
